Temperature
15 15 15 14 14 14 14 14 14 14 14 14 14 14 14 14 14 14 14 14 14 14 14 14 14 14 14 14 13 13 13 13 13 12 12 12 11 11 11 11 11 11 11
15 14 14 14 14 14 14 14 14 14 14 14 14 14 14 14 14 14 14 14 14 14 14 14 14 14 14 13 13 13 13 13 13 13 12 12 11 11 11 11 11 11 11
14 14 14 14 14 14 14 14 14 14 14 14 13 14 14 14 14 14 14 14 14 14 14 14 14 14 14 13 13 13 13 13 13 13 13 12 12 11 11 11 11 11 11
14 14 14 14 14 14 14 14 14 14 14 14 13 14 14 14 14 14 13 13 13 14 14 13 13 13 13 13 13 13 13 13 13 12 12 12 12 11 11 11 11 11 11
14 14 14 14 14 14 14 13 13 13 13 13 13 13 13 13 13 13 13 13 13 13 13 13 13 13 13 13 13 13 13 13 13 12 12 12 12 12 11 11 11 10 10
14 14 13 13 13 13 13 13 13 13 13 13 13 13 13 13 13 13 13 13 13 13 13 13 13 13 13 13 13 13 13 13 13 13 12 12 12 12 11 11 11 10 10
13 13 13 13 13 13 13 13 13 13 13 13 13 13 13 13 13 13 13 13 13 13 13 13 13 13 13 13 13 13 13 13 13 13 13 12 12 12 11 11 11 10 10
13 13 13 13 13 12 12 12 12 12 12 12 12 12 13 13 12 13 13 13 13 13 13 13 13 13 13 13 13 13 13 13 13 12 12 12 12 12 11 11 11 10 10
12 12 12 12 12 12 12 12 12 12 12 12 12 12 12 12 12 12 12 12 12 12 12 12 12 12 12 12 12 13 13 13 12 12 12 12 12 11 11 11 10 10 10
12 12 12 12 12 12 12 12 12 12 12 12 12 12 12 12 12 12 12 12 12 12 12 12 12 12 12 12 12 12 12 12 12 12 12 12 11 11 11 11 11 10 10
11 11 11 11 11 11 11 11 11 11 11 11 11 11 11 11 11 11 11 11 11 12 12 12 12 12 12 12 12 12 12 12 12 12 12 11 11 11 11 11 10 10 10
11 11 11 11 11 11 11 11 11 11 11 11 11 11 11 11 11 11 11 11 11 11 11 12 12 12 12 12 12 12 12 12 12 12 11 11 11 11 11 11 10 10 10
10 10 10 10 10 10 10 10 10 10 10 10 10 11 11 10 10 10 10 10 11 11 11 11 11 11 11 11 11 11 11 11 11 11 11 11 11 11 11 10 10 10 10
9 10 10 10 10 10 10 10 10 10 10 10 10 10 10 10 10 10 10 10 10 10 10 10 11 11 11 11 11 11 11 11 11 11 11 11 11 11 10 10 10 10 10
9 9 9 9 9 9 9 9 9 9 9 9 9 9 9 9 9 9 9 9 10 10 10 10 10 10 10 10 10 10 10 10 10 11 11 11 10 10 10 10 10 10 9
9 8 8 8 8 8 8 9 9 9 9 9 9 9 9 9 9 9 9 9 9 9 9 9 10 9 9 10 10 10 10 10 10 10 10 10 10 10 10 10 10 9 9
8 8 8 8 8 8 8 8 8 8 8 8 8 8 8 8 8 8 8 8 8 8 8 9 9 9 9 9 9 9 10 10 10 10 10 10 10 10 9 9 9 9 9
8 8 8 8 8 8 8 8 8 8 8 8 8 8 8 8 8 8 8 8 8 8 8 8 8 8 9 9 9 9 9 9 9 9 9 9 9 9 9 9 9 9 9
8 7 7 7 8 7 7 7 7 7 7 7 7 7 7 8 8 7 7 8 7 8 8 8 8 8 8 8 8 8 9 9 9 9 9 9 9 9 9 9 9 9 8
7 7 7 7 7 7 7 7 7 7 7 6 7 7 7 7 7 7 7 7 7 7 7 8 8 8 8 8 8 8 8 8 8 8 8 9 8 8 8 8 8 8 8
7 7 7 7 7 7 7 7 7 6 6 6 6 7 7 6 6 7 7 7 7 7 7 7 7 7 7 8 8 8 8 8 8 8 8 8 8 8 8 8 8 8 8
6 6 6 6 6 6 6 6 6 6 6 6 6 6 6 6 6 6 6 6 7 7 7 7 7 7 7 7 7 7 8 8 8 8 8 8 8 8 8 8 8 7 7
6 6 6 6 6 6 6 6 6 6 6 6 6 6 6 6 6 6 6 6 6 6 6 7 7 7 7 7 7 7 7 7 7 7 7 7 7 7 7 7 7 7 7
6 6 5 5 5 5 5 5 5 5 5 5 5 5 6 6 6 6 6 6 6 6 6 6 6 7 7 7 7 7 7 7 7 7 7 7 7 7 7 7 7 7 7
5 5 5 5 5 5 5 5 5 5 5 5 5 5 5 5 5 5 6 6 6 6 6 6 6 6 6 6 6 6 6 6 6 6 6 6 6 6 6 6 6 6 6
5 5 5 5 4 4 4 4 4 4 5 5 5 5 5 5 5 5 5 5 6 6 6 6 6 6 6 6 6 6 6 6 6 6 6 6 6 6 6 6 6 6 6
Wind_Speed
2 2 2 2 2 2 2 3 3 3 2 3 2 2 2 2 3 3 2 3 3 3 3 4 5 4 4 4 4 4 3 3 3 1 1 1 2 3 4 5 6 6 6
2 2 2 2 2 2 3 3 3 3 3 3 2 2 2 3 3 4 4 3 4 4 4 4 5 4 5 4 4 4 4 4 4 4 1 1 2 2 3 3 3 4 4
1 2 2 2 3 3 4 4 3 3 3 3 3 3 3 3 3 4 4 4 4 4 4 5 5 5 5 4 5 5 4 4 3 4 3 1 1 2 2 2 3 2 2
1 2 2 3 4 4 4 3 3 3 4 4 3 4 3 3 3 3 3 4 4 3 4 5 5 6 7 7 6 6 5 5 4 5 4 2 2 1 2 2 1 1 1
2 2 3 3 3 3 3 3 3 3 4 4 3 3 3 3 3 3 3 4 4 4 3 4 5 6 8 8 6 7 7 6 5 5 4 3 2 3 3 3 2 1 1
2 3 3 2 2 3 3 3 3 3 3 3 4 4 4 4 4 5 4 3 4 4 4 4 4 5 7 9 9 11 11 9 8 6 4 5 5 4 3 4 3 2 2
3 3 3 3 3 4 4 3 4 4 4 4 4 4 4 5 6 6 6 3 4 4 5 4 4 4 5 5 7 10 11 12 12 9 7 7 7 7 7 5 5 4 3
3 3 3 3 3 3 3 4 4 4 4 5 5 5 5 5 6 6 6 4 3 4 5 5 5 4 5 6 6 6 6 7 9 8 8 8 7 9 9 7 6 4 1
2 3 3 3 3 3 3 4 4 3 4 5 4 5 5 6 7 6 5 3 3 4 4 4 6 5 7 8 7 6 6 5 7 9 8 8 9 12 12 7 6 4 2
4 5 4 4 4 4 5 5 4 4 5 4 4 5 5 5 6 7 6 3 3 4 3 4 6 7 7 9 8 8 8 6 6 6 5 5 7 10 14 10 8 5 3
5 4 4 4 4 4 4 4 3 4 3 4 4 4 4 5 6 7 7 4 5 4 4 4 4 7 8 9 9 8 9 7 6 6 5 4 4 5 7 8 8 6 5
4 4 4 4 4 4 3 3 3 3 4 4 4 4 4 4 5 7 8 7 6 4 5 4 4 7 8 8 8 8 9 8 5 5 5 5 5 5 5 7 8 8 6
3 4 4 4 4 3 4 4 3 3 4 4 4 5 4 3 4 7 8 8 7 5 4 6 6 7 7 6 7 9 8 6 5 5 6 6 5 5 5 4 4 4 2
4 4 4 3 4 3 3 3 4 4 4 5 5 5 4 3 3 3 4 4 5 4 3 4 5 5 4 4 4 5 6 6 6 6 6 5 4 4 5 5 4 4 2
4 4 4 4 4 3 3 4 5 5 6 6 6 6 5 5 6 7 5 5 5 4 2 2 2 2 2 2 3 4 5 5 6 5 5 5 5 5 4 4 4 4 4
4 4 4 3 3 3 3 3 4 5 7 7 6 6 5 6 6 7 8 7 7 7 4 2 3 3 4 4 5 5 5 6 6 6 6 6 6 6 5 4 4 5 5
5 5 4 4 4 3 3 3 4 4 4 5 6 6 6 5 6 7 7 7 7 7 4 4 4 4 4 4 4 5 5 5 5 6 7 7 7 6 6 6 6 5 5
5 6 5 4 4 4 4 4 4 4 4 3 4 6 6 6 6 6 6 5 4 5 4 4 5 5 5 5 4 4 5 4 5 6 6 6 7 7 7 7 7 7 6
5 5 5 4 4 4 4 4 4 4 4 3 2 3 5 5 4 4 6 4 5 5 5 5 5 5 4 5 5 5 5 5 5 6 6 7 7 7 7 7 7 8 7
5 7 6 4 4 4 4 5 5 5 5 4 4 4 3 2 2 3 4 4 5 5 5 5 5 5 5 5 4 4 5 5 5 5 6 7 7 7 8 8 8 7 7
5 5 7 5 5 5 5 5 5 5 6 5 5 5 5 4 5 5 5 5 5 6 6 6 5 5 5 4 4 5 5 5 5 5 5 6 6 7 7 7 7 8 7
4 5 5 5 5 5 5 5 5 6 6 6 4 4 6 5 5 5 5 6 6 5 5 5 5 5 5 6 6 5 6 6 5 5 5 6 6 6 6 6 7 6 7
5 5 5 5 5 6 6 5 5 5 5 5 4 4 5 5 5 5 6 5 5 5 4 5 5 5 5 6 6 6 7 7 7 6 6 6 6 6 6 7 8 7 7
5 5 5 5 5 5 5 5 5 5 5 5 5 5 5 5 5 6 6 5 5 4 4 5 5 6 7 6 6 7 7 7 7 7 7 7 7 7 6 7 8 8 8
4 4 5 5 5 5 5 5 5 5 5 5 5 5 5 5 5 5 5 5 5 5 5 5 5 6 8 8 7 8 9 9 9 7 6 6 7 7 7 8 8 8 8
4 5 5 5 5 4 4 5 5 5 6 5 5 5 5 5 5 5 4 4 5 5 5 5 6 7 7 8 8 9 9 9 10 9 7 6 7 7 7 7 8 8 8
Wind_Direction
218 223 223 223 217 211 217 235 232 229 225 210 211 204 202 200 188 180 198 193 193 205 198 187 192 177 173 170 159 151 149 141 150 157 106 99 103 103 93 89 81 79 78
219 211 226 230 220 222 236 240 233 227 222 213 208 207 211 204 195 190 202 204 201 205 208 198 197 181 176 170 167 168 165 151 149 159 153 124 117 132 113 96 84 81 87
221 205 220 229 228 233 244 246 238 227 222 212 202 209 215 211 206 207 205 205 208 207 203 204 199 180 185 178 174 172 168 159 142 149 156 131 111 124 102 89 78 58 87
230 215 230 237 234 238 242 240 232 224 218 214 211 214 212 211 206 208 208 207 209 212 207 206 201 192 191 183 180 176 164 153 142 144 147 144 136 133 130 134 104 35 40
223 234 248 254 249 250 249 247 236 225 225 213 206 214 213 211 211 210 212 210 206 212 213 210 212 207 200 189 184 176 165 159 156 156 158 151 163 166 181 172 167 140 330
230 248 256 257 256 250 248 244 236 231 227 211 211 209 215 230 231 217 207 206 205 208 215 217 219 214 209 202 197 182 173 169 173 171 175 183 192 185 161 162 155 155 239
253 259 253 245 252 251 248 239 234 234 225 220 222 212 216 229 230 224 215 203 208 214 215 209 216 216 204 196 194 188 189 189 179 174 182 195 189 186 169 169 179 179 199
259 261 258 249 252 253 243 238 239 235 226 226 225 221 221 234 232 227 217 209 219 221 219 212 207 216 203 189 183 184 194 199 195 188 192 197 191 179 177 177 171 149 117
279 269 262 249 248 249 250 246 242 235 234 232 227 218 220 237 233 223 211 202 225 233 229 218 206 210 211 187 177 184 195 210 204 197 194 191 186 178 166 142 144 150 195
274 267 261 247 238 242 249 249 245 237 236 232 234 227 223 233 234 225 213 201 223 237 236 229 215 211 210 190 186 188 201 210 187 182 180 178 177 177 175 173 170 169 173
274 268 258 247 240 241 248 251 247 238 236 232 233 235 230 233 235 226 215 208 216 226 227 229 227 216 211 203 197 202 208 190 179 175 172 168 165 173 183 186 181 175 178
282 276 268 261 260 265 249 253 245 230 232 236 237 244 245 240 236 234 224 222 220 221 228 227 227 219 217 212 206 211 199 170 164 168 173 184 187 191 192 189 192 195 198
290 284 282 281 270 257 241 244 250 238 233 237 233 240 248 241 238 238 233 228 225 227 230 221 219 216 214 213 212 205 186 172 172 182 195 202 198 188 171 165 170 179 188
288 289 284 279 278 272 258 244 238 236 234 235 236 238 241 235 228 226 224 225 221 232 234 220 213 206 202 206 206 202 191 187 188 197 200 191 168 164 171 171 171 167 165
285 287 284 274 266 265 262 250 243 238 234 232 231 226 225 233 234 223 209 212 209 207 194 177 169 184 203 208 204 195 192 188 196 194 187 179 177 179 182 174 170 167 184
281 282 276 271 260 255 261 282 271 251 255 247 240 233 236 237 234 221 223 218 207 189 175 194 200 206 217 218 215 207 201 201 200 196 190 188 188 190 187 178 175 181 197
265 269 269 265 255 252 251 254 275 283 265 252 245 238 238 238 229 222 222 215 200 183 199 212 210 212 219 223 223 215 210 209 199 196 196 194 192 190 187 189 190 194 204
266 269 270 263 253 245 243 245 248 249 258 263 254 243 237 232 230 229 211 186 198 201 219 222 220 219 218 218 224 223 215 204 200 203 201 197 193 191 192 196 198 201 205
266 264 264 264 259 245 242 242 243 240 245 256 267 257 242 230 226 213 188 200 209 217 222 225 222 221 222 221 225 222 212 209 207 206 205 201 197 196 201 202 203 204 203
266 271 274 266 263 255 245 243 241 236 237 238 241 242 227 205 214 213 212 218 217 221 223 224 222 221 221 218 221 219 213 209 207 211 210 205 200 200 206 205 203 204 207
265 268 271 270 261 257 248 242 239 235 235 235 233 233 219 215 218 219 220 223 221 222 223 223 220 219 219 217 217 216 214 215 211 212 212 207 204 206 208 206 206 206 206
263 263 257 255 256 257 257 249 241 236 233 234 238 231 223 222 223 226 225 228 228 225 223 220 220 219 217 217 215 215 219 218 215 216 215 209 207 209 210 207 206 207 206
265 267 267 261 253 254 257 250 242 239 235 233 230 228 223 227 230 232 231 230 228 227 226 223 221 224 228 227 222 215 219 223 216 211 214 209 207 210 211 212 208 206 209
270 268 267 263 257 253 249 250 248 241 237 235 232 230 228 231 235 236 234 232 228 226 224 223 224 225 227 231 231 228 228 230 222 213 212 213 209 209 211 212 210 210 209
279 272 269 265 260 254 248 247 247 242 238 236 235 237 237 238 239 240 235 229 228 229 229 229 232 231 230 229 231 232 228 224 223 218 217 217 214 211 211 212 211 208 209
289 281 276 270 260 250 244 244 244 241 236 235 236 235 237 239 238 236 234 231 234 235 232 232 234 237 238 236 235 233 228 225 222 217 218 219 216 215 212 215 211 208 207
Height
1531 1532 1532 1533 1533 1533 1533 1533 1534 1534 1534 1535 1535 1536 1536 1536 1537 1538 1539 1540 1541 1542 1543 1544 1545 1546 1547 1548 1550 1551 1552 1553 1553 1554 1555 1556 1557 1557 1558 1558 1558 1558 1557
1529 1530 1530 1531 1531 1531 1531 1531 1531 1532 1532 1533 1533 1534 1534 1534 1535 1536 1537 1537 1538 1539 1540 1541 1542 1544 1545 1546 1547 1549 1550 1551 1552 1552 1553 1554 1555 1556 1557 1557 1557 1557 1557
1527 1528 1528 1528 1528 1528 1528 1529 1529 1529 1530 1530 1531 1531 1532 1532 1533 1534 1534 1535 1536 1537 1538 1538 1540 1541 1542 1543 1545 1546 1548 1549 1550 1551 1552 1553 1554 1554 1555 1556 1556 1556 1556
1525 1525 1525 1525 1525 1525 1525 1525 1526 1526 1527 1527 1528 1528 1529 1530 1530 1531 1532 1532 1533 1534 1535 1536 1537 1538 1539 1540 1542 1543 1545 1546 1547 1549 1550 1551 1552 1553 1553 1554 1554 1555 1555
1522 1522 1522 1522 1522 1522 1522 1522 1522 1523 1524 1524 1525 1525 1526 1527 1527 1528 1529 1529 1530 1531 1532 1533 1534 1535 1536 1538 1539 1540 1542 1543 1545 1546 1547 1548 1549 1550 1551 1552 1553 1553 1553
1518 1518 1519 1519 1519 1519 1519 1519 1519 1519 1520 1521 1521 1522 1523 1523 1524 1525 1526 1527 1527 1528 1529 1530 1531 1532 1533 1535 1536 1537 1539 1540 1541 1543 1544 1545 1546 1547 1548 1549 1550 1551 1551
1514 1514 1515 1515 1515 1515 1515 1515 1515 1515 1516 1516 1517 1518 1519 1520 1521 1521 1522 1523 1524 1525 1526 1527 1527 1529 1530 1531 1532 1534 1535 1537 1539 1540 1541 1542 1543 1545 1546 1547 1548 1549 1549
1510 1510 1510 1511 1511 1511 1511 1511 1511 1511 1512 1512 1513 1514 1515 1516 1517 1518 1519 1519 1520 1521 1522 1523 1524 1525 1526 1527 1529 1530 1532 1533 1535 1537 1538 1540 1541 1542 1543 1545 1545 1546 1547
1507 1507 1507 1507 1506 1506 1506 1507 1507 1507 1507 1508 1509 1510 1510 1512 1513 1514 1515 1515 1516 1517 1518 1519 1520 1521 1522 1524 1525 1527 1528 1530 1532 1534 1535 1536 1538 1539 1540 1541 1542 1543 1543
1503 1503 1503 1503 1502 1502 1502 1502 1502 1503 1503 1504 1504 1505 1506 1507 1508 1510 1510 1511 1511 1512 1514 1515 1516 1517 1518 1520 1521 1523 1524 1526 1528 1529 1531 1532 1534 1535 1537 1538 1539 1540 1540
1499 1499 1498 1498 1498 1498 1498 1497 1497 1498 1498 1499 1499 1500 1501 1502 1503 1504 1505 1506 1507 1507 1509 1510 1511 1513 1514 1515 1517 1518 1520 1522 1524 1525 1527 1528 1530 1531 1533 1534 1536 1537 1538
1495 1494 1493 1493 1493 1493 1492 1492 1492 1492 1492 1493 1494 1494 1495 1496 1497 1498 1500 1501 1502 1503 1504 1505 1506 1508 1509 1510 1512 1513 1515 1517 1519 1520 1522 1523 1525 1527 1529 1531 1532 1533 1535
1490 1489 1488 1487 1487 1487 1487 1486 1486 1487 1487 1487 1488 1488 1489 1490 1492 1493 1494 1495 1497 1498 1499 1500 1501 1503 1504 1505 1507 1508 1510 1512 1513 1515 1517 1518 1521 1523 1525 1526 1528 1529 1530
1485 1484 1483 1482 1481 1481 1481 1481 1481 1481 1481 1481 1482 1483 1484 1485 1486 1487 1488 1490 1491 1492 1493 1495 1496 1497 1498 1499 1501 1502 1504 1506 1508 1510 1512 1514 1516 1518 1520 1521 1523 1524 1525
1480 1479 1478 1477 1476 1476 1475 1475 1475 1475 1476 1476 1477 1478 1479 1479 1480 1482 1483 1484 1485 1487 1488 1489 1490 1491 1492 1493 1495 1496 1498 1501 1502 1504 1507 1509 1510 1512 1514 1516 1518 1519 1520
1475 1474 1473 1472 1471 1470 1470 1469 1469 1470 1470 1471 1472 1473 1473 1475 1476 1477 1478 1479 1480 1482 1483 1483 1484 1485 1486 1487 1489 1490 1492 1494 1497 1499 1501 1503 1505 1507 1509 1510 1512 1514 1515
1471 1469 1468 1467 1466 1465 1465 1464 1463 1464 1464 1465 1466 1467 1468 1469 1470 1471 1473 1474 1475 1476 1477 1477 1479 1480 1481 1482 1484 1485 1487 1489 1491 1493 1495 1497 1499 1501 1503 1504 1506 1508 1509
1466 1464 1463 1462 1461 1460 1459 1459 1458 1458 1458 1458 1460 1461 1462 1463 1465 1466 1467 1468 1469 1470 1470 1472 1473 1475 1476 1477 1479 1480 1482 1484 1485 1487 1489 1491 1493 1495 1497 1498 1500 1502 1503
1461 1459 1458 1457 1456 1455 1454 1454 1453 1453 1453 1453 1454 1455 1457 1458 1459 1460 1461 1462 1463 1464 1465 1466 1468 1470 1471 1472 1474 1475 1476 1478 1480 1481 1483 1485 1487 1489 1490 1492 1494 1496 1497
1455 1454 1453 1451 1450 1449 1449 1448 1448 1448 1448 1448 1448 1450 1451 1452 1453 1454 1455 1456 1457 1458 1460 1461 1463 1464 1466 1467 1468 1469 1471 1472 1473 1475 1477 1478 1480 1482 1484 1486 1488 1489 1491
1449 1448 1447 1445 1444 1443 1443 1443 1443 1443 1443 1443 1444 1445 1446 1447 1447 1448 1449 1450 1451 1452 1454 1456 1457 1459 1460 1461 1462 1463 1465 1466 1467 1469 1470 1472 1473 1475 1477 1479 1481 1483 1484
1443 1442 1440 1439 1438 1437 1437 1437 1437 1437 1437 1438 1438 1440 1441 1442 1442 1443 1444 1445 1446 1447 1449 1450 1452 1453 1454 1456 1457 1458 1459 1460 1461 1463 1464 1465 1467 1468 1470 1472 1474 1476 1477
1438 1436 1434 1433 1432 1431 1431 1431 1431 1431 1432 1432 1433 1434 1435 1436 1437 1437 1438 1439 1441 1442 1443 1445 1446 1447 1449 1450 1452 1452 1453 1454 1456 1457 1458 1459 1460 1461 1463 1465 1466 1468 1470
1432 1430 1429 1427 1426 1426 1425 1425 1426 1426 1426 1427 1428 1429 1430 1431 1432 1432 1433 1434 1435 1436 1438 1439 1440 1442 1443 1445 1446 1447 1448 1449 1450 1451 1452 1453 1454 1455 1456 1457 1459 1461 1463
1427 1425 1423 1422 1421 1420 1420 1420 1420 1421 1422 1422 1423 1424 1425 1426 1426 1427 1428 1429 1430 1431 1432 1433 1434 1436 1437 1438 1440 1441 1442 1443 1444 1445 1446 1446 1447 1448 1449 1451 1452 1454 1456
1422 1420 1418 1417 1416 1415 1415 1415 1415 1416 1417 1418 1419 1419 1420 1421 1421 1422 1422 1423 1424 1425 1426 1427 1429 1430 1431 1432 1433 1434 1436 1437 1438 1439 1440 1440 1441 1442 1443 1444 1446 1447 1449